Meath Environmental Platform

Observations

Time Sensor AQI SAQ Temp °C Hum % Pres Pa CO μg/m³ H₂S μg/m³ NO μg/m³ NO₂ μg/m³ O₃ μg/m³ SO₂ μg/m³ CO₂e PPM VOC PPM PM1 μg/m³ PM2.5 μg/m³ PM4 μg/m³ PM10 μg/m³ TPS µm
Wednesday 12 August 2026
14:41 Trim Patrick St 3 35.4 35 69,626 0 0 0.21 14.78 93.08 17.75 6.29 11.34 12.48
14:40 Trim Patrick St 3 35.2 35 69,604 0 0 0.23 12.46 89.84 19.22 2 8.15 8.97
14:39 Trim Patrick St 2 35 35 69,606 0 0 0.25 12.37 83.88 19.17 5.43 12.12 13.33
14:38 Trim Market St 2 37 30 66,722 0 0 0 12.93 90.17 0.13 1.43 4.92 4.94
14:38 Trim Patrick St 3 34.9 36 69,581 0 0 0.26 12.4 117.31 19.28 5.43 11.3 12.43
14:37 Trim Market St 2 36.8 30 66,722 0 0 0.02 13.49 85.01 0 2.85 6 6.6
14:37 Trim Patrick St 3 34.7 36 69,575 0 0 0.28 12.38 121.97 17.94 4.57 10.44 11.48
14:36 Trim Market St 2 36.7 31 66,724 0 0 0 12.78 81.11 0.64 2.14 5.45 5.99
14:36 Trim Patrick St 2 34.6 37 69,569 0 0 0.28 12.38 74.25 18.38 4.57 11.18 12.3
14:35 Trim Market St 2 36.7 31 66,731 0 0 0.03 12.9 74.46 0.91 1.43 4.36 4.8
14:35 Trim Patrick St 2 34.4 36 69,563 0 0 0.32 12.3 75.07 17.64 4.57 10.45 11.49
14:34 Trim Market St 2 36.6 31 66,702 0 0 0.06 13.59 67.11 0.53 2.14 5.45 5.99
14:34 Trim Patrick St 2 34.3 36 69,557 0 4.56 0.33 12.21 84.96 20.23 5.43 12.81 14.09
14:33 Trim Market St 2 36.6 31 66,673 0 1 0.18 13.34 100.09 1.3 2.14 5.44 5.99
14:33 Trim Patrick St 2 34.2 37 69,521 0 9.99 0.34 12.63 110.42 20.02 4.57 11.17 12.29
14:32 Trim Market St 2 36.5 31 66,686 0 0 0.2 14.17 67.18 0.03 2.14 5.45 5.99
14:32 Trim Patrick St 2 34.1 37 69,535 0 13.88 0.36 13.43 104.63 20.06 5.43 11.22 12.34
14:31 Trim Market St 2 36.6 31 66,679 0 0 0.19 13.42 67.8 0 2.14 4.91 5.4
14:31 Trim Patrick St 2 34 36 69,547 0 13.57 0.38 18.34 86.15 19.2 4.57 11.24 12.36
14:30 Trim Patrick St 3 34 36 69,539 0 9.31 0.38 12.49 104.58 19.77 5.43 12.82 14.11